www.pogodaiklimat.ru

Погода и климат >> Архив погоды >> Украина >> Харьков


АРХИВ ПОГОДЫ в Харькове

Время (UTC), дата Ветер
(напр.,м/с)
 
Видим.   Явления Облачность Т
(С)
Тd
(С)
f
(%)
Тe
(С)
Тes
(С)
Комфортность P
(гПа)
Po
(гПа)
Тmin
(С)
Tmax
(С)
R
(мм)
R24
(мм)
S
(см)
00 23.04 ЮВ 1 7000 м дымка {ливн. осадки} 9/4 1000 м
[Sc Ac trans]
+5.7 +4.1 89 +4 +4 по сезону 1008.0 989.1
03 23.04 ЮВ 1 100 м туман ?/? +4.0 +4.0 100 +2 +2 прохладно 1008.1 989.1
06 23.04 З 2 3600 м в посл. час туман 9/9 150 м
[St]
+7.1 +6.4 95 +5 +5 прохладно 1008.2 989.4 +3.0 0.0
09 23.04 С 1 10 км 9/8 900 м
[Cu med, cong Ci fib]
+11.2 +4.6 64 +11 +14 по сезону 1007.0 988.5
12 23.04 СЗ 2 10 км 9/8 600 м
[Cb cap Ci]
+11.9 -1.3 40 +11 +13 прохладно 1006.1 987.7
15 23.04 штиль 0 10 км 10/8 1000 м
[Sc diur, vesp As op]
+10.9 +2.0 54 +11 +11 по сезону 1006.0 987.5
18 23.04 С 3 10 км 9/4 1000 м
[Sc Ac trans]
+9.4 -1.0 48 +8 +8 по сезону 1006.7 988.1 +13.2
21 23.04 С 3 10 км 9/0
[Ac trans]
+8.2 -0.8 53 +6 +6 по сезону 1006.9 988.2
00 24.04 СЗ 3 10 км 10/0
[Ac und]
+6.8 -0.7 59 +4 +4 по сезону 1006.6 987.8
03 24.04 СЗ 3 10 км 9/0
[Ac trans Ci]
+5.6 -2.0 58 +3 +3 прохладно 1007.9 989.0
06 24.04 СЗ 3 10 км 5/0
[Ac trans Ci]
+9.0 -3.5 41 +7 +12 по сезону 1009.0 990.3 +5.2
09 24.04 СЗ 6 10 км 9/8 1000 м
[Cu med, cong Ac trans]
+10.8 -5.3 32 +8 +9 прохладно 1009.2 990.6
12 24.04 СЗ 7 10 км 9/8 600 м
[Cb cap Ac trans]
+10.2 -2.3 41 +7 +7 холодно 1009.7 991.1
15 24.04 З 4 10 км в посл. час ливневой дождь 8/5 1000 м
[Sc diur, vesp Ac trans]
+9.6 -2.5 43 +7 +8 прохладно 1010.8 992.1
18 24.04 ЮЗ 3 10 км {ливн. осадки} 3/3 1000 м
[Sc]
+6.7 -3.0 50 +4 +4 холодно 1013.6 994.7 +11.4 0.0
21 24.04 З 3 10 км ясно +4.2 -3.7 56 +1 +1 холодно 1015.6 996.5
00 25.04 З 2 10 км ясно +2.4 -3.9 63 -0 -0 холодно 1017.7 998.4
03 25.04 З 2 10 км ясно +2.0 -4.8 61 -1 -1 очень
холодно
1019.7 1000.3
06 25.04 З 2 10 км ясно +7.6 -2.8 48 +6 +13 по сезону 1021.4 1002.4 +1.5
09 25.04 З 5 10 км 8/8 1000 м
[Cu med, cong]
+11.2 -4.7 32 +9 +11 по сезону 1022.1 1003.3
12 25.04 ЮЗ 8 10 км 9/9 1000 м
[Cu med, cong]
+12.4 -2.5 35 +10 +10 прохладно 1021.7 1003.0
15 25.04 ЮЗ 8 10 км 8/8 1000 м
[Sc diur, vesp]
+11.8 -4.9 31 +9 +9 прохладно 1021.9 1003.2
18 25.04 Ю 4 10 км ясно +8.0 -1.8 50 +5 +5 прохладно 1022.8 1003.8 +13.5
21 25.04 Ю 4 10 км ясно +5.6 -1.1 62 +2 +2 холодно 1023.4 1004.2
00 26.04 Ю 4 10 км ясно +6.8 +0.1 62 +4 +4 по сезону 1023.8 1004.7
03 26.04 Ю 4 10 км 6/6 1000 м
[Sc]
+5.2 -0.4 67 +1 +2 холодно 1024.8 1005.6
06 26.04 Ю 9 10 км 3/0
[Ac trans]
+10.3 -1.2 45 +7 +7 по сезону 1024.8 1005.9 +4.4
09 26.04 Ю 10 10 км 3/0
[Ci fib]
+14.7 -2.7 30 +12 +13 по сезону 1024.4 1005.8
12 26.04 Ю 9 10 км 3/0
[Ci fib]
+16.5 -1.2 30 +15 +16 по сезону 1023.3 1004.8
15 26.04 Ю 8 10 км 6/0
[Ci]
+15.8 -1.0 32 +14 +15 тепло 1022.3 1003.8
18 26.04 Ю 5 10 км 4/0
[Ci fib]
+12.0 -1.7 38 +10 +10 по сезону 1022.9 1004.2 +16.9
21 26.04 Ю 6 10 км ясно +9.2 -3.7 40 +6 +6 по сезону 1023.9 1005.0
00 27.04 Ю 6 10 км ясно +7.1 -2.1 52 +3 +3 прохладно 1023.7 1004.6
03 27.04 ЮВ 4 10 км 3/0
[Ci fib]
+3.1 -0.4 78 -1 -1 очень
холодно
1023.9 1004.6
06 27.04 Ю 4 10 км 3/0
[Ci fib]
+12.2 +3.1 54 +10 +15 по сезону 1023.4 1004.7 +1.7
09 27.04 Ю 8 10 км 6/0
[Ci]
+18.5 +0.6 30 +18 +20 тепло 1022.3 1004.0
12 27.04 Ю 7 10 км 8/0
[Ci]
+22.4 -1.6 20 +21 +24 комфорт 1020.5 1002.5
15 27.04 Ю 7 10 км 8/0
[Ci]
+21.0 -1.7 22 +21 +21 комфорт 1019.9 1001.8
18 27.04 Ю 3 10 км 8/0
[Ci]
+16.5 -1.2 30 +16 +16 тепло 1020.4 1002.0 +22.6
21 27.04 ЮВ 4 10 км 4/0
[Ci fib]
+11.4 -0.8 43 +10 +10 по сезону 1021.4 1002.7
00 28.04 ЮВ 4 10 км 5/0
[Ci fib]
+7.4 -0.3 58 +4 +4 по сезону 1022.1 1003.1
03 28.04 ЮВ 4 10 км 4/0
[Ci fib]
+6.6 +1.1 68 +3 +3 прохладно 1022.1 1003.0
06 28.04 ЮВ 3 10 км 3/0
[Ci fib]
+14.9 +3.8 47 +14 +20 тепло 1021.9 1003.4 +4.6
09 28.04 ЮВ 3 10 км 3/0
[Ci fib]
+20.0 +2.3 31 +21 +32 комфорт 1020.7 1002.5
12 28.04 ЮВ 3 10 км ясно +22.6 +1.6 25 +22 +31 комфорт 1019.1 1001.1
15 28.04 ЮВ 4 10 км 3/0
[Ci fib]
+22.5 +1.4 25 +22 +23 комфорт 1017.7 999.7
18 28.04 В 2 10 км 3/0
[Ci fib]
+17.4 +1.2 34 +18 +18 тепло 1018.0 999.7 +23.2
21 28.04 В 3 10 км ясно +12.7 +3.8 55 +12 +12 тепло 1018.1 999.5
00 29.04 В 2 10 км ясно +9.2 +4.5 72 +8 +8 по сезону 1018.1 999.3
03 29.04 В 2 10 км 3/0
[Ci fib]
+9.4 +5.4 76 +8 +8 по сезону 1018.1 999.3
06 29.04 ЮВ 3 10 км 3/0
[Ci fib]
+17.7 +6.1 46 +18 +23 тепло 1017.5 999.3 +7.2
09 29.04 Ю 3 10 км 3/0
[Ci fib]
+22.0 +4.5 32 +22 +34 комфорт 1017.3 999.3
12 29.04 Ю 3 10 км ясно +23.6 +2.9 26 +23 +32 комфорт 1016.3 998.4
15 29.04 ЮВ 2 10 км ясно +23.4 +5.4 31 +24 +26 комфорт 1015.9 998.0
18 29.04 ЮВ 2 10 км ясно +18.2 +4.1 39 +19 +19 тепло 1016.9 998.7 +24.3

 

Местоположение метеостанции Харьков (Харьковская область, Украина): широта 49.97 долгота 36.13 высота над уровнем моря 155 м.

В архиве по умолчанию представлена погода в Харькове за последнюю неделю. Архивные данные за месяц целиком и за предыдущие месяцы, начиная с января 2011 года, Вы можете получить, выбрав интересующий диапазон дат из раскрывающегося списка и нажав кнопку "Ввод!".

Внимание! Время в таблицах - всемирное. Для получения местного времени необходимо прибавить поправку, которая в Харькове равна 2 ч.

Смотрите также архив погоды в соседних городах и на ближайших метеорологических станциях:

Погода в Золочеве (Львовская область, Украина) (39 км)
Погода в Боходухове (Харьковская область, Украина) (50 км)
Погода в Комсомольском (Донецкая область, Украина) (50 км)
Погода в Коломаке (Харьковская область, Украина) (66 км)
Погода в Белгороде (Белгородская область, Россия) (80 км)
Погода в Краснограде (Харьковская область, Украина) (82 км)
Погода в Великом Бурлуке (Харьковская область, Украина) (90 км)
Погода в Готне (Белгородская область, Россия) (96 км)
Погода в Купянске (Харьковская область, Украина) (119 км)
Погода в Лозовой (Харьковская область, Украина) (120 км)

Пояснения к столбцам:

Ветер - указаны скорость ветра в м/с - средняя за 10 мин, порывы в срок и между сроками (в фигурных скобках) и направление, откуда дует ветер: С - северный, СВ - северо-восточный, В - восточный, ЮВ - юго-восточный, Ю - южный, ЮЗ - юго-западный, З - западный, СЗ - северо-западный.
Видимость - горизонтальная дальность видимости в метрах или километрах. При видимости от 1 до 10 км при отсутствии осадков обычно наблюдается дымка, при ухудшении видимости до 1 км и менее - туман. В сухую погоду видимость может ухудшаться дымом, пылью или мглою.
Явления - указаны атмосферные явления, наблюдавшиеся в срок или в последний час перед сроком; фигурными скобками обозначены явления, наблюдавшиеся между сроками (за 1-3 часа до срока); квадратными скобками обозначены град или гололедные отложения с указанием их диаметра в мм.
Облачность - указаны через наклонную черту общая и нижняя облачность в баллах и высота нижней границы облаков в метрах; квадратными скобками обозначены формы облаков: Ci - перистые, Cs - перисто-слоистые, Cc - перисто-кучевые, Ac - высококучевые, As - высокослоистые, Sc - слоисто-кучевые, Ns - слоисто-дождевые, Cu - кучевые, Cb - кучево-дождевые. Подробнее классификацию облаков см. в Атласе облаков (PDF).
T - Температура воздуха - температура, измеренная на высоте 2 м над землей.
Td - Температура точки росы - температура, при понижении до которой содержащийся в воздухе водяной пар достигнет насыщения.
f - Относительная влажность воздуха - влажноcть воздуха, измеренная на высоте 2 м над землей.
Te - Эффективная температура - температура, которую ощущает одетый по сезону человек в тени. Характеристика душности погоды. При расчете учитывается влияние влажности воздуха и скорости ветра на теплоощущения человека.
Tes - Эффективная температура на солнце - температура, которую ощущает человек, с поправкой на солнечный нагрев. Характеристика знойности погоды. Зависит от высоты солнца над горизонтом, облачности и скорости ветра. Ночью, в пасмурную погоду, а также при ветре 12 м/с и более поправка равна нулю.
P - Атмосферное давление - приведенное к уровню моря атмосферное давление.
Po - Атмосферное давление - измеренное на уровне метеостанции атмосферное давление.
Tmin - Минимальная температура - минимум температуры воздуха на высоте 2 м над землей.
Tmax - Максимальная температура - максимум температуры воздуха на высоте 2 м над землей.
R - Количество осадков - Количество выпавших осадков за период времени, мм. При наведении курсора мыши на число - период времени, за который выпало указанное количество осадков.
R24 - Количество осадков - Количество выпавших осадков за 24 часа, мм.
S - Снежный покров - Высота снежного покрова, см. При наведении курсора мыши на число - состояние снежного покрова и степень покрытия местности в баллах.